Location: Heiligenhaus
(51.3252°N, 6.9639°E)
Time: 00:37:34
(UTC+00:00)

Daily predictions for brighter satellites

Satellite Brightness Start Highest point End
(mag) Time Altitude Azimuth Time Altitude Azimuth Time Altitude Azimuth
STARLINK-1247 2.9 00:00:05 10° WNW 00:03:13 81° NNE 00:06:21 10° ESE
STARLINK-1227 2.8 00:00:33 10° WNW 00:03:40 81° NNE 00:06:46 10° ESE
ATLAS CENTAUR R/B 2.3 00:02:02 10° NW 00:04:02 39° NNE 00:07:26 10° E
STARLINK-1226 2.8 00:01:24 10° WNW 00:04:32 82° NNE 00:07:39 10° ESE
STARLINK-1215 2.8 00:02:21 10° WNW 00:05:29 82° NNE 00:08:37 10° ESE
STARLINK-1225 3.7 00:01:36 10° W 00:05:45 76° N 00:09:55 10° ENE
Cosmos 292 Rocket 4.3 00:03:39 23° SW 00:06:33 55° WNW 00:11:20 10° NNE
STARLINK-1217 2.8 00:04:07 10° WNW 00:07:14 83° NNE 00:10:22 10° ESE
STARLINK-1229 2.8 00:05:02 10° WNW 00:08:10 84° NNE 00:11:18 10° ESE
STARLINK-1271 3.9 00:04:28 10° WNW 00:08:37 71° N 00:12:46 10° E
STARLINK-1270 2.8 00:05:53 10° WNW 00:09:02 85° NNE 00:12:09 10° ESE
Cosmos 1726 3.2 00:06:39 10° NNW 00:09:59 32° W 00:10:54 28° WSW
STARLINK-1230 3.8 00:06:35 10° W 00:10:44 75° N 00:14:53 10° ENE
STARLINK-1189 2.8 00:07:44 10° WNW 00:10:52 86° NNE 00:14:00 10° ESE
Cosmos 2058 Rocket 3.4 00:06:51 10° N 00:11:14 61° ENE 00:13:46 24° SSE
GEOS 3 Rocket 3.6 00:07:39 20° SSE 00:11:20 69° SW 00:16:38 10° NW
STARLINK-1188 2.8 00:08:37 10° WNW 00:11:45 86° N 00:14:53 10° ESE
STARLINK-1235 2.7 00:09:19 10° WNW 00:12:25 84° SSW 00:15:32 10° ESE
Meteor 1-29 3.2 00:09:13 10° NNE 00:12:34 56° E 00:13:32 39° SSE
STARLINK-1187 2.7 00:09:44 10° WNW 00:12:50 88° SSW 00:15:57 10° ESE
STARLINK-1154 3.8 00:09:27 10° WNW 00:13:36 72° N 00:17:45 10° E
Cosmos 2228 3.0 00:09:31 10° NNW 00:13:47 71° W 00:15:32 34° S
STARLINK-1191 2.7 00:11:06 10° WNW 00:14:13 88° N 00:17:19 10° ESE
SJ 16-02 3.8 00:11:18 10° N 00:14:42 21° NE 00:18:05 10° E
COSMOS 2455 3.2 00:11:39 26° S 00:14:47 52° ESE 00:20:37 10° NE
STARLINK-1221 2.7 00:11:58 10° WNW 00:15:05 89° N 00:18:12 10° ESE
STARLINK-1243 3.8 00:11:34 10° W 00:15:43 73° N 00:19:52 10° ENE
STARLINK-1222 2.7 00:12:52 10° WNW 00:15:59 90° NNE 00:19:05 10° ESE
Cosmos 2263 4.4 00:12:25 22° SW 00:16:04 69° WNW 00:21:43 10° NNE
STARLINK-1214 2.7 00:13:47 10° WNW 00:16:53 90° WSW 00:20:00 10° ESE
Cosmos 1953 3.7 00:14:52 10° NNW 00:18:13 26° W 00:19:26 22° WSW
STARLINK-1197 3.8 00:14:26 10° WNW 00:18:36 73° N 00:22:44 10° E
Cosmos 1340 Rocket 3.9 00:16:18 10° NNW 00:19:54 32° W 00:21:08 26° SW
SL-14 R/B 4.0 00:18:39 26° SSE 00:20:20 42° E 00:24:00 10° NNE
STARLINK-1236 3.8 00:16:34 10° W 00:20:43 72° N 00:24:51 10° ENE
IRAS Rocket 4.2 00:17:53 21° SSE 00:21:43 89° ENE 00:27:19 10° NNW
Cosmos 1300 3.1 00:19:15 10° N 00:23:01 56° ENE 00:25:04 25° SSE
STARLINK-1198 3.8 00:19:24 10° WNW 00:23:33 75° N 00:27:42 10° E
Cosmos 1174 4.0 00:23:33 35° SSE 00:24:12 40° ESE 00:27:40 10° NE
Okean 1-7 Rocket 3.9 00:22:03 28° SSE 00:24:17 59° E 00:28:44 10° NNE
Cosmos 921 Rocket 4.3 00:23:34 20° SE 00:25:36 30° E 00:29:22 10° NE
BREEZE M DEB (TANK) 3.2 00:26:49 26° ESE 00:26:49 26° ESE 00:28:27 10° ESE
COSMOS 2487 2.9 00:23:22 10° NW 00:26:40 41° WSW 00:27:18 37° SW
Cosmos 1992 Rocket 4.4 00:25:15 22° SW 00:28:32 56° WNW 00:33:42 10° NNE
STARLINK-1199 3.7 00:24:25 10° WNW 00:28:35 76° NNE 00:32:44 10° E
STARLINK-1269 3.9 00:26:31 10° W 00:30:40 70° N 00:34:49 10° E
Cosmos 2219 4.0 00:26:03 10° NNW 00:31:37 51° NE 00:37:06 10° SE
STARLINK-1210 3.7 00:29:23 10° WNW 00:33:33 78° NNE 00:37:42 10° E
STARLINK-1200 3.9 00:31:32 10° W 00:35:41 70° N 00:39:49 10° E
Cosmos 1626 2.3 00:34:31 32° SSE 00:36:04 65° E 00:39:47 10° NNE
STARLINK-60 3.9 00:36:27 31° SE 00:36:27 31° SE 00:39:17 10° E
Cosmos 1606 Rocket 4.2 00:33:00 10° NNW 00:37:04 41° W 00:38:48 27° SW
Cosmos 1656 Rocket 3.9 00:33:51 21° SW 00:37:38 67° WNW 00:43:13 10° NNE
STARLINK-1219 3.7 00:34:22 10° WNW 00:38:32 80° NNE 00:42:41 10° E
Nadezhda 1 Rocket 4.2 00:34:19 10° N 00:40:28 68° ENE 00:45:52 14° SSE
STARLINK-1192 3.9 00:36:32 10° W 00:40:40 69° N 00:44:49 10° E
FALCON 9 R/B 3.9 00:38:25 22° S 00:41:38 28° SSE 00:56:12 10° ESE
CZ-4 R/B 4.4 00:37:52 10° N 00:42:34 51° WNW 00:45:23 22° SW
STARLINK-1211 3.6 00:39:20 10° WNW 00:43:29 82° NNE 00:47:39 10° ESE
STARLINK-1244 3.9 00:41:30 10° W 00:45:38 69° N 00:49:47 10° E
Cosmos 2297 Rocket 2.9 00:41:43 10° NNW 00:47:18 54° NE 00:52:48 10° SE
MOZ.5/SAFIR/RUBIN 5/SL-8 3.8 00:44:15 18° SSE 00:47:40 79° ENE 00:52:20 10° NNW
UNK 4.2 00:44:00 13° SSE 00:47:58 61° ENE 00:52:31 10° N
ERBS 4.4 00:45:28 10° WNW 00:48:27 29° N 00:51:27 10° ENE
STARLINK-1245 3.6 00:44:20 10° WNW 00:48:30 85° NNE 00:52:39 10° ESE
Meteor 2-21 4.5 00:45:34 23° SSW 00:49:34 78° WNW 00:55:48 10° N
Cosmos 1812 Rocket 4.4 00:46:03 10° N 00:50:25 48° ENE 00:54:30 11° SSE
STARLINK-1138 3.9 00:46:30 10° W 00:50:38 68° N 00:54:46 10° E
PSLV R/B 4.4 00:46:48 10° N 00:51:14 45° WNW 00:53:52 21° SW
SL-4 R/B 2.8 00:49:12 26° SSW 00:51:25 44° SSE 00:55:54 10° E
STARLINK-1203 4.0 00:49:05 10° W 00:53:18 69° N 00:57:29 10° E
STARLINK-1233 3.6 00:49:18 10° WNW 00:53:28 87° NNE 00:57:37 10° ESE
Cosmos 1437 3.0 00:52:48 32° SSE 00:53:53 54° E 00:56:51 10° NNE
Cosmos 1674 3.9 00:53:21 21° WSW 00:55:04 30° WNW 00:58:27 10° N
STARLINK-1143 3.9 00:51:29 10° W 00:55:38 68° N 00:59:46 10° E
SL-19 R/B 4.2 00:50:58 10° NNE 00:56:21 86° WNW 01:00:03 22° SSW
STARLINK-1204 3.6 00:54:18 10° WNW 00:58:28 90° NNW 01:02:37 10° ESE
Cosmos 1777 Rocket 4.3 00:53:44 10° NNW 00:58:46 49° WSW 01:01:54 22° S
Timation 2 Rocket 4.0 00:52:52 10° NW 00:59:11 63° WSW 01:04:30 14° SSE
ATLAS CENTAUR R/B 1.4 00:56:56 26° SSW 00:59:18 77° SE 01:03:26 10° NE
STARLINK-1241 3.9 00:56:28 10° W 01:00:37 68° N 01:04:45 10° E
SL-16 R/B 2.5 00:56:01 12° SSE 01:01:49 88° ENE 01:08:02 10° NNW
BREEZE-M R/B 4.1 01:01:07 23° S 01:02:08 25° SSE 01:04:53 10° E
NOSS 3-4 (A) 3.5 00:57:31 17° SW 01:02:17 78° NW 01:08:49 10° NE
NOSS 3-4 (C) 3.5 00:57:37 17° SW 01:02:23 78° NW 01:08:55 10° NE
STARLINK-1238 3.5 00:59:15 10° WNW 01:03:25 87° SSW 01:07:34 10° ESE
Cosmos 1602 Rocket 4.1 01:01:58 18° SSE 01:04:56 51° E 01:09:09 10° NNE
STARLINK-29 4.0 01:04:34 26° SSE 01:05:05 28° SE 01:07:53 10° E
Cosmos 1455 3.5 01:01:53 10° N 01:05:25 36° ENE 01:08:53 10° SE
STARLINK-1239 3.9 01:01:27 10° W 01:05:36 68° N 01:09:44 10° E
ATLAS 3B R/B 3.0 01:00:00 10° NW 01:06:25 46° WSW 01:12:42 11° S
STARLINK-1201 3.5 01:04:15 10° WNW 01:08:25 84° SSW 01:12:34 10° ESE
CENTAUR R/B 4.0 01:03:08 10° WNW 01:09:54 30° WSW 01:14:47 18° SSW
STARLINK-1240 3.9 01:06:27 10° W 01:10:37 69° N 01:14:44 10° E
GP-B 4.3 01:07:32 10° NNE 01:11:43 38° E 01:15:52 10° SSE
Meteor 2-1 Rocket 4.2 01:07:12 10° NNW 01:12:45 84° ENE 01:18:04 11° SSE
BREEZE-M DEB (TANK) 1.6 01:12:39 34° SSW 01:13:12 40° SSE 01:15:24 10° E
STARLINK-1206 3.5 01:09:14 10° WNW 01:13:23 81° SSW 01:17:32 10° ESE
Cosmos-2242 4.3 01:10:58 10° N 01:14:59 38° ENE 01:18:57 10° SE
STARLINK-1216 3.9 01:11:26 10° W 01:15:35 69° N 01:19:43 10° E
Cosmos 1745 Rocket 4.0 01:12:45 18° S 01:17:26 88° W 01:23:37 10° N
Cosmos 1892 Rocket 4.5 01:14:51 20° SW 01:17:27 37° WNW 01:21:34 10° N
STARLINK-1205 3.5 01:14:13 10° WNW 01:18:22 78° SSW 01:22:30 10° ESE
STARLINK-1237 3.9 01:16:26 10° W 01:20:35 70° N 01:24:43 10° E
RESURS DK-1 2.3 01:19:17 23° SSW 01:21:50 87° ESE 01:26:00 10° NNE
Cosmos 2227 Rocket 2.3 01:17:15 10° NNW 01:22:58 79° ENE 01:28:40 10° SSE
Cosmos 1356 Rocket 3.6 01:19:01 10° NNW 01:23:04 55° W 01:25:49 20° S
STARLINK-1218 3.5 01:19:11 10° WNW 01:23:20 75° SSW 01:27:27 10° ESE
STARLINK-1202 3.9 01:21:26 10° W 01:25:35 71° N 01:29:44 10° E
Meteor 1-24 Rocket 4.1 01:22:03 19° SW 01:25:43 49° WNW 01:31:00 10° N
CZ-2D R/B 2.1 01:20:47 10° NNE 01:26:06 79° ESE 01:30:15 17° S
Helios 1B rocket 4.3 01:23:14 10° NNW 01:26:16 20° WNW 01:29:11 11° WSW
Cosmos 2369 Rocket 4.1 01:22:46 10° W 01:27:16 23° NW 01:31:46 10° NNE
STARLINK-1254 3.5 01:24:10 10° WNW 01:28:18 71° SSW 01:32:26 10° ESE
Cosmos 1697 Rocket 4.4 01:24:04 10° SSE 01:28:35 25° ESE 01:33:07 10° NE
ADEOS II 3.3 01:23:47 10° NNE 01:28:40 37° E 01:33:30 10° SSE
ATLAS 2AS CENTAUR R/B 3.4 01:23:26 10° WSW 01:31:23 62° NW 01:39:11 10° NE
STARLINK-1231 3.5 01:29:10 10° WNW 01:33:18 68° SSW 01:37:24 10° ESE
CZ-4C R/B 4.0 01:30:46 19° SSW 01:33:22 42° W 01:37:32 10° NNW
STARLINK-1228 4.0 01:31:58 10° W 01:34:49 26° SW 01:37:39 10° SSE
STARLINK-1246 3.9 01:31:24 10° WNW 01:35:33 73° N 01:39:42 10° E
Resurs 1-4 Rocket 2.1 01:30:33 10° NNE 01:35:52 86° WNW 01:40:11 16° SSW
STARLINK-1234 3.9 01:33:25 10° W 01:36:02 24° SW 01:37:03 20° S
STARLINK-1212 3.6 01:34:41 10° W 01:37:28 30° SSW 01:40:13 10° SSE
STARLINK-1105 3.6 01:35:10 10° W 01:37:55 29° SSW 01:40:40 10° SSE
Cosmos 1943 Rocket 4.5 01:34:32 10° WNW 01:38:14 18° NNW 01:41:58 10° NNE
STARLINK-1232 3.5 01:34:09 10° WNW 01:38:17 65° SSW 01:42:23 10° SE
STARLINK-1209 4.0 01:35:43 10° W 01:38:18 23° SW 01:38:42 22° SSW
STARLINK-1247 3.7 01:36:04 10° W 01:38:51 29° SSW 01:41:36 10° SSE
STARLINK-1227 3.7 01:36:33 10° W 01:39:17 29° SW 01:42:01 10° SSE
STARLINK-1226 3.7 01:37:24 10° W 01:40:09 28° SW 01:42:53 10° SSE
STARLINK-1224 3.8 01:36:23 10° WNW 01:40:32 74° N 01:44:41 10° E
ARIANE 5 R/B 4.1 01:36:17 10° NNE 01:40:44 29° E 01:45:05 10° SSE
USA 81 4.1 01:36:19 14° S 01:40:52 89° W 01:46:12 10° N
STARLINK-1215 3.7 01:38:21 10° W 01:41:05 28° SW 01:43:50 10° SSE
STARLINK-52 3.4 01:39:41 22° SSW 01:41:24 43° SSE 01:44:29 10° ENE
STARLINK-1217 3.8 01:40:07 10° W 01:42:51 27° SW 01:45:33 10° SSE
STARLINK-1208 3.6 01:39:07 10° WNW 01:43:13 61° SSW 01:47:19 10° SE
Cosmos 1758 Rocket 3.9 01:39:23 12° S 01:43:17 62° E 01:47:38 10° NNE
NPP 3.7 01:37:51 10° NNE 01:43:18 87° WNW 01:47:57 14° SSW
STARLINK-1229 3.8 01:41:03 10° W 01:43:46 27° SW 01:46:28 10° SSE
STARLINK-1270 3.8 01:41:55 10° W 01:44:38 27° SW 01:47:19 10° SSE
STARLINK-1225 3.8 01:41:22 10° WNW 01:45:32 76° N 01:49:41 10° E
H-2A R/B 3.9 01:42:09 10° SE 01:46:02 33° ENE 01:50:01 10° N
STARLINK-1189 3.8 01:43:47 10° W 01:46:27 26° SW 01:49:07 10° SSE
STARLINK-1188 3.9 01:44:40 10° W 01:47:20 26° SW 01:49:59 10° SSE
STARLINK-1235 4.1 01:45:29 10° W 01:47:55 21° SW 01:50:21 10° SSE
Cosmos 1898 Rocket 3.5 01:42:48 10° NNW 01:48:10 83° WSW 01:53:30 10° SSE
STARLINK-1271 3.6 01:44:07 10° WNW 01:48:12 58° SSW 01:52:17 10° SE
STARLINK-1187 4.0 01:45:51 10° W 01:48:23 23° SW 01:50:54 10° SSE
STARLINK-1191 3.9 01:47:10 10° W 01:49:46 25° SW 01:52:22 10° SSE
Lacrosse 4 Rocket 2.5 01:45:44 10° NNW 01:50:01 49° NE 01:54:11 10° SE
STARLINK-1230 3.8 01:46:21 10° WNW 01:50:31 78° NNE 01:54:40 10° E
STARLINK-1221 3.9 01:48:02 10° W 01:50:38 24° SW 01:53:14 10° SSE
Starlink 7 placeholder 1.7 01:49:43 22° W 01:50:48 78° NNW 01:52:47 10° ENE
STARLINK-1222 3.9 01:48:57 10° W 01:51:32 24° SW 01:54:06 10° SSE
Meteor 1-21 Rocket 4.2 01:46:49 13° S 01:51:51 90° WNW 01:57:35 10° NNE
STARLINK-1214 4.0 01:49:52 10° W 01:52:26 24° SW 01:54:59 10° SSE
STARLINK-1154 3.7 01:49:07 10° WNW 01:53:11 55° SSW 01:57:14 10° SE
Cosmos 1656 4.0 01:48:20 13° SSW 01:53:22 62° ESE 01:58:56 10° NE
Cosmos 2285 Rocket 4.2 01:47:10 10° NNW 01:53:37 79° ENE 01:59:58 10° SSE
SJ 16-02 1.4 01:49:19 10° NNW 01:53:43 63° WSW 01:58:05 10° S
CZ-4C R/B 3.5 01:50:58 10° S 01:55:20 30° ESE 02:00:24 10° ENE
STARLINK-1243 3.7 01:51:20 10° WNW 01:55:30 79° NNE 01:59:39 10° E
Cosmos 2084 3.6 01:52:18 16° SW 01:55:53 78° SE 02:00:22 10° NE
Cosmos 468 Rocket 4.3 01:52:22 12° S 01:57:05 63° ESE 02:02:10 10° NNE
STARLINK-1197 3.7 01:54:06 10° WNW 01:58:08 52° SSW 02:02:10 10° SE
Cosmos 1937 Rocket 3.5 01:53:10 10° NNW 01:58:27 89° ENE 02:03:43 10° SSE
Cosmos 1953 Rocket 4.3 01:55:18 10° S 01:59:38 52° E 02:03:58 10° NNE
STARLINK-1236 3.7 01:56:20 10° WNW 02:00:29 82° NNE 02:04:38 10° ESE
Meteor 2-10 Rocket 3.7 01:55:15 10° NNW 02:00:32 57° W 02:05:35 10° S
COSMOS 2455 3.7 01:55:10 10° WSW 02:00:53 43° NW 02:06:39 10° NNE
STARLINK-1198 3.8 01:59:03 10° WNW 02:03:04 49° SSW 02:07:04 10° SE
Cosmos 921 Rocket 4.0 02:00:21 13° WSW 02:03:49 35° WNW 02:07:49 10° N
Cosmos 1709 Rocket 4.0 02:01:48 11° SSW 02:07:36 69° WNW 02:13:45 10° N
STARLINK-1199 3.9 02:04:05 10° WNW 02:08:04 46° SSW 02:12:02 10° SE
STARLINK-1269 3.7 02:06:16 10° WNW 02:10:26 86° NNE 02:14:35 10° ESE
Cosmos 1626 4.4 02:09:52 10° W 02:11:47 13° WNW 02:13:42 10° NNW
STARLINK-60 3.0 02:09:09 10° WSW 02:12:22 80° NNW 02:15:35 10° ENE
STARLINK-1210 3.9 02:09:04 10° WNW 02:13:00 43° SSW 02:16:56 10° SE
STARLINK-1200 3.6 02:11:16 10° WNW 02:15:26 89° NNE 02:19:35 10° ESE
Cosmos 2219 3.9 02:10:32 10° NW 02:15:36 34° WSW 02:20:36 10° S
STARLINK-1320 3.9 02:14:52 13° SSW 02:17:15 33° SSE 02:20:06 10° E
STARLINK-1322 3.9 02:15:11 13° SSW 02:17:36 33° SSE 02:20:27 10° E
STARLINK-1324 3.9 02:15:32 13° SSW 02:17:57 33° SSE 02:20:49 10° E
STARLINK-1219 4.0 02:14:03 10° WNW 02:17:58 41° SSW 02:21:51 10° SE
STARLINK-1294 3.9 02:15:47 13° SSW 02:18:14 33° SSE 02:21:07 10° E
STARLINK-1261 3.9 02:16:09 13° SSW 02:18:36 33° SSE 02:21:28 10° E
STARLINK-1325 3.9 02:16:30 13° SSW 02:18:57 33° SSE 02:21:49 10° E
STARLINK-1333 3.9 02:16:48 13° SSW 02:19:16 34° SSE 02:22:08 10° E
STARLINK-1334 3.8 02:17:07 13° SSW 02:19:35 34° SSE 02:22:28 10° E
STARLINK-1326 3.8 02:17:28 13° SSW 02:19:57 34° SSE 02:22:49 10° E
STARLINK-1323 3.8 02:17:47 12° SSW 02:20:17 34° SSE 02:23:09 10° E
STARLINK-1192 3.6 02:16:15 10° WNW 02:20:25 88° SSW 02:24:34 10° ESE
STARLINK-1338 4.1 02:17:39 12° SSW 02:20:32 35° SSE 02:23:45 10° E
STARLINK-1349 3.8 02:18:06 12° SSW 02:20:37 34° SSE 02:23:29 10° E
Cosmos 1980 Rocket 3.6 02:15:45 10° S 02:20:43 34° ESE 02:25:44 10° NE
STARLINK-1336 3.8 02:18:28 12° SSW 02:20:59 34° SSE 02:23:52 10° E
STARLINK-1331 3.8 02:18:45 12° SSW 02:21:17 35° SSE 02:24:10 10° E
CRYOSAT 2 4.4 02:16:26 10° N 02:21:22 80° W 02:26:16 10° S
STARLINK-1344 3.8 02:19:05 12° SW 02:21:38 35° SSE 02:24:31 10° E
STARLINK-1343 3.8 02:19:25 12° SW 02:21:58 35° SSE 02:24:52 10° E
STARLINK-1346 3.8 02:19:43 12° SW 02:22:19 35° SSE 02:25:15 10° E
STARLINK-1328 3.8 02:20:05 12° SW 02:22:39 35° SSE 02:25:34 10° E
STARLINK-1211 4.1 02:19:02 10° WNW 02:22:53 38° SW 02:26:45 10° SE
STARLINK-1354 3.8 02:20:22 12° SW 02:22:58 35° SSE 02:25:52 10° E
STARLINK-1347 3.8 02:20:44 12° SW 02:23:19 36° SSE 02:26:14 10° E
CZ-4B R/B 4.4 02:21:29 10° E 02:23:22 15° ENE 02:25:16 10° NNE
Cosmos 1328 3.8 02:19:30 10° SSW 02:23:27 72° W 02:27:28 10° N
STARLINK-1357 3.8 02:21:01 12° SW 02:23:38 36° SSE 02:26:33 10° E
STARLINK-1335 3.7 02:21:22 12° SW 02:23:59 36° SSE 02:26:54 10° E
STARLINK-1327 3.7 02:21:41 12° SW 02:24:19 36° SSE 02:27:14 10° E
STARLINK-1371 4.0 02:21:31 11° SW 02:24:33 37° SSE 02:27:49 10° E
STARLINK-1340 3.7 02:22:01 12° SW 02:24:40 36° SSE 02:27:35 10° E
STARLINK-1356 3.7 02:22:21 12° SW 02:25:00 37° SSE 02:27:55 10° E
ERBS 3.4 02:22:01 10° NW 02:25:16 48° NNE 02:28:32 10° E
STARLINK-1345 3.7 02:22:41 12° SW 02:25:21 37° SSE 02:28:16 10° E
STARLINK-1244 3.6 02:21:13 10° WNW 02:25:23 85° SSW 02:29:32 10° ESE
ERS-2 2.1 02:21:55 10° SSE 02:25:35 84° WSW 02:29:17 10° NNW
STARLINK-1355 3.7 02:22:59 12° SW 02:25:41 37° SSE 02:28:36 10° E
STARLINK-1321 3.7 02:23:18 11° SW 02:26:00 37° SSE 02:28:55 10° E
STARLINK-1358 3.7 02:23:39 11° SW 02:26:21 37° SSE 02:29:18 10° E
STARLINK-1341 4.0 02:23:29 11° SW 02:26:35 38° SSE 02:29:52 10° E
STARLINK-1332 3.7 02:23:57 11° SW 02:26:40 38° SSE 02:29:36 10° E
STARLINK-1348 3.7 02:24:18 11° SW 02:27:02 38° SSE 02:29:58 10° E
IRS-1C 4.2 02:21:40 10° NNE 02:27:03 88° ESE 02:32:24 10° SSW
STARLINK-1330 3.7 02:24:36 11° SW 02:27:21 38° SSE 02:30:17 10° E
AQUA 4.5 02:22:56 10° N 02:27:27 44° WNW 02:31:57 10° SW
STARLINK-1363 3.7 02:24:56 11° SW 02:27:41 38° SSE 02:30:38 10° E
STARLINK-1245 4.2 02:24:03 10° W 02:27:52 36° SW 02:31:40 10° SSE
STARLINK-1337 3.7 02:25:15 11° SW 02:28:01 38° SSE 02:30:58 10° E
STARLINK-1342 3.7 02:25:35 11° SW 02:28:22 38° SSE 02:31:18 10° E
STARLINK-1374 3.9 02:25:26 11° SW 02:28:38 39° SSE 02:31:56 10° E
STARLINK-1364 3.6 02:25:55 11° SW 02:28:43 39° SSE 02:31:39 10° E
STARLINK-1376 3.6 02:26:15 11° SW 02:29:03 39° SSE 02:32:00 10° E
STARLINK-1360 3.6 02:26:30 11° SW 02:29:19 39° SSE 02:32:17 10° E
STARLINK-1361 3.6 02:26:56 11° SW 02:29:45 39° SSE 02:32:43 10° E
CZ-4B R/B 4.2 02:25:06 10° N 02:29:55 43° WNW 02:34:50 10° SW
STARLINK-1367 3.6 02:27:10 11° SW 02:30:01 40° SSE 02:33:01 10° E
STARLINK-1138 3.6 02:26:12 10° WNW 02:30:21 82° SSW 02:34:31 10° ESE
STARLINK-1366 3.6 02:27:33 11° SW 02:30:23 40° SSE 02:33:21 10° E
STARLINK-1339 3.9 02:27:27 10° SW 02:30:42 40° SSE 02:34:01 10° ENE
SL-4 R/B 2.4 02:26:09 10° WSW 02:31:00 88° SSE 02:35:37 10° E
Cosmos 2297 Rocket 3.0 02:26:10 10° NW 02:31:07 32° WSW 02:36:02 10° SSW
STARLINK-1377 3.9 02:29:28 10° SW 02:32:48 42° SSE 02:36:08 10° ENE
STARLINK-1233 4.3 02:29:03 10° W 02:32:48 34° SW 02:36:33 10° SSE
STARLINK-1203 3.6 02:29:01 10° WNW 02:33:14 80° SSW 02:37:26 10° ESE
STARLINK-1353 3.8 02:31:21 10° SW 02:34:38 42° SSE 02:37:58 10° ENE
Cosmos 2082 3.8 02:29:30 10° NW 02:35:02 54° WSW 02:40:30 10° S
STARLINK-1143 3.6 02:31:11 10° WNW 02:35:20 79° SSW 02:39:30 10° ESE
STARLINK-1375 3.8 02:33:10 10° SW 02:36:30 44° SSE 02:39:50 10° ENE
CBERS-1 4.4 02:31:52 10° N 02:36:51 53° WNW 02:41:49 10° SW
STARLINK-1204 4.3 02:34:04 10° W 02:37:46 31° SW 02:41:27 10° SSE
ATLAS CENTAUR R/B 3.2 02:35:05 10° W 02:38:36 25° NNW 02:41:58 10° NNE
Cosmos 540 Rocket 3.9 02:33:43 10° S 02:38:46 62° ESE 02:43:52 10° NNE
STARLINK-1350 3.7 02:35:32 10° SW 02:38:53 45° SSE 02:42:14 10° ENE
FALCON 9 DEB 3.1 02:35:51 10° WSW 02:39:17 76° SSE 02:42:46 10° ENE
STARLINK-1241 3.6 02:36:09 10° WNW 02:40:19 76° SSW 02:44:27 10° ESE
Cosmos 1455 3.7 02:37:59 10° NW 02:40:48 20° W 02:43:37 10° SW
STARLINK-29 3.0 02:37:48 10° WSW 02:41:00 84° NNW 02:44:12 10° ENE
STARLINK-1352 3.7 02:37:55 10° SW 02:41:19 47° SSE 02:44:43 10° ENE
CZ-2D R/B 3.8 02:37:21 10° NNE 02:41:26 65° ESE 02:45:36 10° S
Landsat 5 3.8 02:38:00 10° SSE 02:42:31 81° ENE 02:47:04 10° NNW
STARLINK-1238 4.4 02:39:04 10° W 02:42:41 30° SW 02:46:19 10° SSE
Cosmos 1825 Rocket 4.1 02:38:51 10° SW 02:42:57 42° WNW 02:47:06 10° N
Cosmos 2278 4.3 02:37:42 10° S 02:43:12 57° ESE 02:48:46 10° NE
STARLINK-1368 3.7 02:40:04 10° SW 02:43:29 48° SSE 02:46:54 10° ENE
STARLINK-1239 3.6 02:41:08 10° WNW 02:45:17 73° SSW 02:49:25 10° ESE
STARLINK-1369 3.6 02:42:00 10° SW 02:45:23 50° SSE 02:48:47 10° ENE
Meteor 1-11 4.3 02:39:49 10° SSW 02:45:28 84° WNW 02:51:07 10° NNE
Meteor 1-28 Rocket 3.3 02:41:45 10° S 02:45:29 56° W 02:49:13 10° NNW
SL-16 R/B 3.9 02:42:00 10° SW 02:46:16 19° W 02:50:33 10° NW
Cosmos 2263 Rocket 3.0 02:41:32 10° NNW 02:47:06 57° NE 02:52:36 10° SE
